TimeMDT,TemperatureF,Dew PointF,Humidity,Sea Level PressureIn,VisibilityMPH,Wind Direction,Wind SpeedMPH,Gust SpeedMPH,PrecipitationIn,Events,Conditions,WindDirDegrees,DateUTC
12:53 AM,34.0,23.0,64,30.27,10.0,ESE,17.3,-,N/A,,Partly Cloudy,110,2012-10-05 06:53:00
1:53 AM,33.1,23.0,66,30.24,10.0,ESE,17.3,25.3,N/A,,Clear,110,2012-10-05 07:53:00
2:53 AM,30.9,23.0,72,30.22,10.0,ESE,17.3,25.3,N/A,,Clear,110,2012-10-05 08:53:00
3:53 AM,32.0,24.1,73,30.24,10.0,ESE,16.1,-,N/A,,Overcast,110,2012-10-05 09:53:00
4:53 AM,33.1,24.1,70,30.26,10.0,SE,15.0,-,N/A,,Overcast,130,2012-10-05 10:53:00
5:53 AM,33.1,25.0,72,30.25,10.0,SSE,15.0,23.0,N/A,,Overcast,150,2012-10-05 11:53:00
6:24 AM,32.0,26.6,80,30.22,2.5,SSE,19.6,-,0.00,Snow,Light Snow,150,2012-10-05 12:24:00
6:28 AM,30.2,28.4,93,30.23,1.2,SSE,17.3,-,0.00,Snow,Light Snow,150,2012-10-05 12:28:00
6:32 AM,30.2,28.4,93,30.22,0.8,SSE,16.1,-,0.00,Snow,Light Snow,150,2012-10-05 12:32:00
6:43 AM,30.2,28.4,93,30.22,1.2,SSE,16.1,-,0.00,Snow,Light Snow,150,2012-10-05 12:43:00
6:45 AM,30.2,28.4,93,30.22,1.5,SSE,16.1,-,0.00,Snow,Light Snow,150,2012-10-05 12:45:00
6:53 AM,30.0,28.9,96,30.27,2.0,SSE,17.3,-,0.00,Snow,Light Snow,150,2012-10-05 12:53:00
7:04 AM,30.2,28.4,93,30.20,3.0,SSE,18.4,-,0.00,Snow,Light Snow,150,2012-10-05 13:04:00
7:53 AM,30.9,28.9,92,30.25,10.0,SE,20.7,25.3,0.00,,Overcast,140,2012-10-05 13:53:00
8:53 AM,32.0,30.0,92,30.30,10.0,ESE,12.7,-,N/A,,Overcast,120,2012-10-05 14:53:00
9:53 AM,32.0,30.0,92,30.35,10.0,ESE,11.5,-,0.00,,Overcast,120,2012-10-05 15:53:00
10:53 AM,33.1,30.9,92,30.33,10.0,ESE,13.8,-,N/A,,Overcast,120,2012-10-05 16:53:00
11:53 AM,33.1,30.9,92,30.34,10.0,ESE,11.5,-,N/A,,Overcast,120,2012-10-05 17:53:00
12:53 PM,32.0,30.9,96,30.34,1.5,East,12.7,-,N/A,,Overcast,100,2012-10-05 18:53:00
12:56 PM,32.0,30.2,93,30.27,1.0,East,11.5,-,N/A,,Overcast,100,2012-10-05 18:56:00
1:03 PM,32.0,30.2,93,30.27,0.2,East,15.0,-,N/A,Fog,Fog,100,2012-10-05 19:03:00
1:53 PM,32.0,30.9,96,30.32,0.2,ESE,12.7,-,N/A,Fog,Fog,110,2012-10-05 19:53:00
2:53 PM,32.0,30.9,96,30.32,0.2,ESE,16.1,20.7,N/A,Fog,Fog,120,2012-10-05 20:53:00
3:53 PM,30.9,30.9,100,30.33,0.2,ESE,11.5,-,N/A,Fog,Light Freezing Fog,110,2012-10-05 21:53:00
4:53 PM,30.9,30.9,100,30.35,0.8,ESE,10.4,-,N/A,,Overcast,120,2012-10-05 22:53:00
5:40 PM,30.2,30.2,100,30.29,1.2,ESE,9.2,-,N/A,,Overcast,110,2012-10-05 23:40:00
5:45 PM,30.2,30.2,100,30.29,1.0,East,9.2,-,0.00,Rain,Light Freezing Rain,100,2012-10-05 23:45:00
5:53 PM,30.9,30.9,100,30.37,1.5,East,6.9,-,0.00,Rain,Light Freezing Rain,100,2012-10-05 23:53:00
6:16 PM,30.2,30.2,100,30.29,2.5,East,6.9,-,0.00,Rain,Light Freezing Rain,90,2012-10-06 00:16:00
6:23 PM,30.2,30.2,100,30.30,3.0,East,9.2,-,0.00,Rain,Light Freezing Rain,80,2012-10-06 00:23:00
6:42 PM,30.2,30.2,100,30.30,3.0,East,8.1,-,0.00,,Overcast,80,2012-10-06 00:42:00
6:53 PM,30.9,30.0,96,30.39,2.5,East,8.1,-,0.01,,Overcast,80,2012-10-06 00:53:00
7:03 PM,30.2,30.2,100,30.30,3.0,East,9.2,-,N/A,,Overcast,80,2012-10-06 01:03:00
7:53 PM,30.9,30.0,96,30.41,3.0,East,8.1,-,N/A,,Overcast,80,2012-10-06 01:53:00
8:02 PM,30.2,30.2,100,30.33,3.0,East,6.9,-,N/A,,Overcast,80,2012-10-06 02:02:00
8:53 PM,30.9,30.9,100,30.40,7.0,East,6.9,-,N/A,,Overcast,100,2012-10-06 02:53:00
9:53 PM,30.9,30.0,96,30.38,7.0,East,8.1,-,N/A,,Overcast,80,2012-10-06 03:53:00
10:02 PM,30.2,30.2,100,30.30,1.8,East,8.1,-,N/A,,Overcast,80,2012-10-06 04:02:00
10:07 PM,30.2,30.2,100,30.30,1.0,East,8.1,-,N/A,,Overcast,80,2012-10-06 04:07:00
10:15 PM,30.2,30.2,100,30.30,0.5,East,8.1,-,N/A,Fog,Light Freezing Fog,80,2012-10-06 04:15:00
10:53 PM,30.9,30.0,96,30.37,1.0,East,6.9,-,N/A,,Mist,100,2012-10-06 04:53:00
10:57 PM,30.2,30.2,100,30.29,1.5,East,6.9,-,N/A,,Overcast,100,2012-10-06 04:57:00
11:02 PM,30.2,30.2,100,30.29,3.0,ESE,8.1,-,N/A,,Overcast,110,2012-10-06 05:02:00
11:10 PM,30.2,30.2,100,30.29,1.0,East,8.1,-,N/A,,Mist,90,2012-10-06 05:10:00
11:18 PM,30.2,30.2,100,30.29,0.8,ESE,5.8,-,N/A,,Mist,110,2012-10-06 05:18:00
11:53 PM,30.9,30.9,100,30.36,0.2,ESE,9.2,-,N/A,Fog,Light Freezing Fog,120,2012-10-06 05:53:00